Location: ??
(35.5052°N, 139.7262°E)
Time: 03:35:33
(UTC+00:00)

CZ-2C R/B - Visible Passes

Search period start: 17 October 2021 00:00
Search period end: 27 October 2021 00:00
Orbit: 500 x 565 km, 97.7° (Epoch: 16 October)

Date Brightness Start Highest point End Pass type
(mag) Time Alt. Az. Time Alt. Az. Time Alt. Az.
17 Oct 5.8 18:11:40 10° NE 18:11:49 11° NE 18:11:49 11° NE visible
17 Oct 4.9 19:46:59 10° NW 19:47:10 11° NW 19:47:10 11° NW visible
18 Oct 4.9 19:36:52 10° NNW 19:37:16 12° NNW 19:37:16 12° NNW visible
19 Oct 4.9 19:26:55 10° NNW 19:27:24 13° NNW 19:27:24 13° NNW visible
20 Oct 5.0 19:17:05 10° N 19:17:30 13° NNW 19:17:30 13° NNW visible
21 Oct 5.2 19:07:18 10° N 19:07:36 12° N 19:07:36 12° N visible
22 Oct 5.3 18:57:35 10° N 18:57:43 11° N 18:57:43 11° N visible
